Helsinki Malmi current weather conditions

sailwx.info

Wind from 240 at 6 knots

Air temperature 2.0° C
Visibility: greater than 5.4 NM
Dewpoint 1.0° C

Last reported at 2017-Jan-19 09:20 UTC.
Time now 2017-Jan-19 10:58 UTC

Location: N 60°15' E 025°03'.
View on Google Maps.

See reports from other nearby stations

  
Tides and Currents Weather Stations Pressure Air Temp Water Temp Dewpoint Dewpoint Depression Visibility Wind Speed Wind Dir Waves Ship Positions
date/time (UTC)wind fromknots sea level pressurealtimeterstation pressurevisibilityair tempwater tempwave heightnotes
2017-Jan-19 09:20 240 6 5.4 2.0
2017-Jan-19 08:50 240 6 5.4 2.0
2017-Jan-19 08:20 240 7 5.4 2.0
2017-Jan-19 07:50 250 6 5.4 2.0
2017-Jan-19 07:20 250 6 5.4 2.0
2017-Jan-19 06:50 250 6 5.4 2.0
2017-Jan-19 06:20 260 6 5.4 1.0
2017-Jan-19 05:50 250 6 5.4 1.0
2017-Jan-19 05:20 260 6 5.4 1.0
2017-Jan-19 04:50 260 6 5.4 1.0
2017-Jan-19 04:20 250 7 5.4 1.0
2017-Jan-19 03:50 250 7 5.4 1.0
2017-Jan-19 03:20 240 6 5.4 1.0
2017-Jan-19 02:50 240 7 5.4 1.0
2017-Jan-19 02:20 250 7 5.4 2.0
2017-Jan-19 01:50 250 6 5.4 2.0
2017-Jan-19 01:20 240 7 5.4 2.0
2017-Jan-19 00:50 230 7 5.4 2.0
2017-Jan-19 00:20 240 9 5.4 2.0
2017-Jan-18 23:50 240 8 5.4 2.0
2017-Jan-18 23:20 230 8 4.3 2.0
2017-Jan-18 22:50 230 8 4.3 2.0
2017-Jan-18 22:20 220 8 5.4 2.0
2017-Jan-18 21:50 210 8 3.2 2.0
2017-Jan-18 21:20 230 12 gusting 22 4.3 2.0
2017-Jan-18 20:50 220 11 4.3 2.0
2017-Jan-18 20:20 220 11 2.7 2.0
2017-Jan-18 19:50 220 9 5.4 2.0
2017-Jan-18 19:20 210 11 2.3 2.0
2017-Jan-18 18:50 210 9 2.7 2.0
2017-Jan-18 18:20 210 11 3.2 2.0
2017-Jan-18 17:50 210 11 gusting 20 2.7 2.0
2017-Jan-18 17:20 210 12 2.7 2.0
2017-Jan-18 16:50 210 8 3.2 2.0
2017-Jan-18 16:20 220 8 2.5 2.0
2017-Jan-18 15:50 210 9 3.8 2.0 Light drizzle.
2017-Jan-18 15:20 220 7 4.3 2.0 Light drizzle.
2017-Jan-18 14:50 220 9 3.2 2.0 Light drizzle.
2017-Jan-18 14:20 220 9 2.2 2.0 Light drizzle. Mist.
2017-Jan-18 13:50 220 8 1.9 2.0 Light drizzle. Mist.
2017-Jan-18 13:20 220 7 2.4 2.0 Light drizzle. Mist.
2017-Jan-18 12:50 230 6 5.4 2.0
2017-Jan-18 12:20 220 6 5.4 1.0
2017-Jan-18 11:50 220 5 3.8 1.0
2017-Jan-18 11:20 210 5 4.3 1.0
2017-Jan-18 10:50 230 5 3.2 1.0 Light drizzle.
2017-Jan-18 10:20 230 5 1.9 1.0 Light drizzle. Mist.
2017-Jan-18 09:50 230 6 5.4 1.0
2017-Jan-18 09:20 240 6 5.4 1.0
2017-Jan-18 08:50 240 6 5.4 1.0
2017-Jan-18 08:20 230 6 3.2 1.0
2017-Jan-18 07:50 220 6 5.4 1.0
2017-Jan-18 07:20 230 6 5.4 1.0
2017-Jan-18 06:50 210 4 2.7 1.0
2017-Jan-18 06:20 230 4 2.2 1.0 Light drizzle. Mist.
2017-Jan-18 05:50 240 5 2.6 1.0 Mist.
2017-Jan-18 05:20 240 6 5.4 1.0
2017-Jan-18 04:50 230 6 5.4 1.0
2017-Jan-18 04:20 230 6 5.4 1.0
2017-Jan-18 03:50 220 6 5.4 1.0
2017-Jan-18 03:20 220 5 3.8 1.0 Light rain showers.
2017-Jan-18 02:50 220 6 5.4 1.0 Light rain showers.
2017-Jan-18 02:20 220 6 3.8 1.0 Light rain.
2017-Jan-18 01:50 210 6 4.9 1.0 Light rain showers.
2017-Jan-18 01:20 210 6 5.4 1.0 Light ice pellets.
2017-Jan-18 00:50 210 6 5.4 1.0 Light ice pellets.
2017-Jan-18 00:20 210 7 5.4-0.0 Light rain.
2017-Jan-17 23:50 210 7 5.4-0.0 Light rain.
2017-Jan-17 23:20 210 7 5.4-0.0
2017-Jan-17 22:50 210 7 5.4-0.0
2017-Jan-17 22:20 210 8 5.4-0.0
2017-Jan-17 21:50 200 8 5.4-0.0
2017-Jan-17 21:20 210 9 5.4-0.0
2017-Jan-17 20:50 200 8 5.4-0.0
2017-Jan-17 20:20 200 9 5.4-0.0
2017-Jan-17 19:50 200 7 5.4-0.0
2017-Jan-17 19:20 190 7 5.4-0.0
2017-Jan-17 18:50 200 6 5.4-1.0
2017-Jan-17 18:20 210 7 5.4-1.0
2017-Jan-17 17:50 220 6 5.4-1.0
2017-Jan-17 17:20 220 6 5.4-1.0
2017-Jan-17 16:50 190 6 5.4-1.0
2017-Jan-17 16:20 180 6 5.4-1.0
2017-Jan-17 15:50 200 6 5.4-1.0 Light snow.
2017-Jan-17 15:20 190 4 5.4-1.0
2017-Jan-17 14:50 170 4 5.4-2.0
2017-Jan-17 14:20 170 4 5.4-3.0
2017-Jan-17 13:50 190 1 5.4-3.0
2017-Jan-17 13:20 210 4 5.4-3.0
2017-Jan-17 12:50 230 2 5.4-4.0
2017-Jan-17 12:20 210 5 5.4-4.0
2017-Jan-17 11:50 220 4 5.4-4.0
2017-Jan-17 11:20 200 4 5.4-5.0
2017-Jan-17 10:50 210 5 5.4-5.0
2017-Jan-17 10:20 210 1 4.3-5.0 Light freezing drizzle.